TimeEDT,TemperatureF,Dew PointF,Humidity,Sea Level PressureIn,VisibilityMPH,Wind Direction,Wind SpeedMPH,Gust SpeedMPH,PrecipitationIn,Events,Conditions,WindDirDegrees,DateUTC
12:53 AM,70.0,64.0,81,30.13,10.0,NNE,6.9,-,N/A,,Clear,30,2012-10-13 04:53:00
1:53 AM,70.0,63.0,78,30.12,10.0,NNE,6.9,-,N/A,,Clear,20,2012-10-13 05:53:00
2:53 AM,70.0,63.0,78,30.11,10.0,North,8.1,-,N/A,,Clear,10,2012-10-13 06:53:00
3:53 AM,69.1,63.0,81,30.09,10.0,NNE,9.2,-,N/A,,Clear,20,2012-10-13 07:53:00
4:53 AM,68.0,63.0,84,30.09,10.0,North,6.9,-,N/A,,Clear,10,2012-10-13 08:53:00
5:53 AM,68.0,63.0,84,30.10,10.0,NNE,8.1,-,N/A,,Clear,20,2012-10-13 09:53:00
6:53 AM,68.0,64.0,87,30.11,10.0,NNE,6.9,-,N/A,,Clear,20,2012-10-13 10:53:00
7:53 AM,69.1,64.0,84,30.12,10.0,NNE,9.2,-,N/A,,Clear,20,2012-10-13 11:53:00
8:53 AM,73.0,64.9,76,30.13,10.0,NNE,8.1,-,N/A,,Clear,30,2012-10-13 12:53:00
9:53 AM,77.0,64.9,66,30.14,10.0,NE,13.8,20.7,N/A,,Clear,50,2012-10-13 13:53:00
10:53 AM,81.0,64.0,56,30.13,10.0,NE,17.3,24.2,N/A,,Clear,50,2012-10-13 14:53:00
11:53 AM,84.0,64.0,51,30.12,10.0,East,19.6,25.3,N/A,,Clear,80,2012-10-13 15:53:00
12:53 PM,84.9,64.0,49,30.10,10.0,NE,16.1,26.5,N/A,,Clear,50,2012-10-13 16:53:00
1:53 PM,84.9,63.0,48,30.07,10.0,ENE,17.3,26.5,N/A,,Scattered Clouds,60,2012-10-13 17:53:00
2:53 PM,86.0,64.9,49,30.05,10.0,ENE,20.7,28.8,N/A,,Scattered Clouds,70,2012-10-13 18:53:00
3:53 PM,84.2,64.4,51,30.04,10.0,ENE,20.7,31.1,N/A,,Scattered Clouds,70,2012-10-13 19:53:00
4:53 PM,82.0,66.0,58,30.03,10.0,ENE,18.4,29.9,N/A,,Mostly Cloudy,70,2012-10-13 20:53:00
5:53 PM,81.0,66.0,60,30.04,10.0,ENE,15.0,-,N/A,,Scattered Clouds,70,2012-10-13 21:53:00
6:53 PM,80.1,64.9,60,30.05,10.0,ENE,12.7,-,N/A,,Scattered Clouds,60,2012-10-13 22:53:00
7:53 PM,78.8,64.4,61,30.07,10.0,ENE,9.2,-,N/A,,Clear,60,2012-10-13 23:53:00
8:53 PM,75.0,66.0,73,30.08,10.0,ENE,6.9,-,N/A,,Clear,60,2012-10-14 00:53:00
9:53 PM,73.4,66.2,78,30.10,10.0,NE,6.9,-,N/A,,Overcast,50,2012-10-14 01:53:00
10:53 PM,73.0,68.0,84,30.09,10.0,NE,8.1,-,N/A,,Partly Cloudy,40,2012-10-14 02:53:00
11:53 PM,73.0,68.0,84,30.09,10.0,NE,6.9,-,N/A,,Overcast,40,2012-10-14 03:53:00